Location: Maiden
(35.5760°N, 81.2120°W)
Time: 08:48:12
(UTC-04:00)

Vanguard 2 - Pass Details

Date: 09 August 2021
Orbit: 552 x 2938 km, 32.9° (Epoch: 18 September)

Event Time Altitude Azimuth Distance (km) Brightness Sun altitude
Exits shadow 04:34:35 53° 144° (SE) 689 7.2 -22.7°
Drops below altitude 10° 04:37:59 10° 96° (E) 1,829 10.0 -22.2°
Sets 04:40:16 0° 92° (E) 2,789 11.2 -21.8°
